Home > Time Zones > World Clock > Weather > India > Mau > Past weeks

Flag for India Weather past 2 weeks in Mau, Uttar Pradesh, India

Now
82 °F

Haze.


Feels Like: 91 °F
Forecast: 82 / 96 °F
Wind: 3 mph from East

Location: Varanasi / Babatpur

Current Time: Aug 30, 2014 at 6:01:58 AM

Latest Report: Aug 30, 2014 at 5:00 AM


Visibility: 2 mi

Pressure: 29.62 "Hg

Humidity: 84%

Dew point: 77 °F

Location of MauLocation

Historic Weather in Mau — Graph

°F

Mau temperature yesterday

Maximum temperature yesterday: 100 °F (at 2:00 PM)
Minimum temperature yesterday: 81 °F (at 5:00 AM)
Average temperature yesterday: 89 °F

Past Weeks' High & Low Weather Summary

 TemperatureHumidityPressure
High100 °F (Aug 29, 2:00 PM)94% (Aug 15, 11:00 PM)29.77 "Hg (Aug 15, 11:00 PM)
Low79 °F (Aug 20, 10:00 PM)45% (Aug 29, 2:00 PM)29.53 "Hg (Aug 26, 5:00 PM)
Average88 °F75%29.64 "Hg
* Reported Aug 15 5:00 AM — Aug 30 4:00 AM, Mau, Weather by CustomWeather, © 2014

Note: Actual official high and low records may vary slightly from our data, if they occured in-between our weather recording intervals... More about our weather records

Advertising

Mau weather history for previous 24 hours

 ConditionsComfort  
Time TempWeatherWind HumidityBarometerVisibility
4:00 AM
Aug 30
82 °FHaze.3 mph84%29.62 "Hg2 mi
12:00 AM84 °FClear.2 mph84%29.62 "Hg2 mi
11:00 PM
Aug 29
86 °FHaze.2 mph79%29.62 "Hg2 mi
10:00 PM86 °FHaze.2 mph79%29.62 "Hg2 mi
9:00 PM88 °FHaze.2 mph70%29.62 "Hg3 mi
8:00 PM88 °FHaze.3 mph70%29.59 "Hg3 mi
7:00 PM88 °FHaze.3 mph75%29.59 "Hg3 mi
6:00 PM91 °FHaze.5 mph63%29.59 "Hg3 mi
5:00 PM93 °FHaze.7 mph56%29.56 "Hg3 mi
4:00 PM95 °FScattered clouds.7 mph50%29.56 "Hg3 mi
3:00 PM99 °FScattered clouds.9 mph47%29.56 "Hg3 mi
2:00 PM100 °FPartly sunny.8 mph45%29.59 "Hg3 mi
1:00 PM97 °FScattered clouds.9 mph53%29.62 "Hg3 mi
12:00 PM95 °FScattered clouds.8 mph60%29.62 "Hg3 mi
11:00 AM91 °FScattered clouds.8 mph71%29.65 "Hg3 mi
10:00 AM90 °FScattered clouds.9 mph75%29.65 "Hg3 mi
9:00 AM88 °FScattered clouds.9 mph79%29.65 "Hg3 mi
8:00 AM84 °FScattered clouds.9 mph84%29.65 "Hg2 mi
7:00 AM82 °FScattered clouds.7 mph89%29.65 "Hg2 mi
6:00 AM81 °FPassing clouds.5 mph89%29.65 "Hg2 mi
Weather by CustomWeather, © 2014

See weather overviewHow to use our weather pages